Terminal Aerodrome Forecast
Issued by NWS

Home | Current Version | Previous Version | Text Only | Print | Product List | Glossary On
Versions: 1 2 3 4 5 6 7 8 9 10 11 12 13 14 15 16 17 18 19
000
FTUS41 KPBZ 052320
TAFAGC
TAF
KAGC 052320Z 0600/0624 06003KT P6SM FEW060 FEW150 BKN250
     FM061500 13004KT P6SM VCSH BKN040
     FM061800 19006KT 6SM -SHRA VCTS BKN035CB OVC050=

USA.gov is the U.S. government's official web portal to all federal, state and local government web resources and services.